Date,TemperatureHighF,TemperatureAvgF,TemperatureLowF,DewpointHighF,DewpointAvgF,DewpointLowF,HumidityHigh,HumidityAvg,HumidityLow,PressureMaxIn,PressureMinIn,WindSpeedMaxMPH,WindSpeedAvgMPH,GustSpeedMaxMPH,PrecipitationSumIn
2013-1-1,56.0,45.0,40.0,38.0,36.7,35.0,87,74,49,29.66,29.55,0,-999,0,0.00
2013-1-2,53.0,43.0,36.0,38.0,34.6,31.0,85,73,52,29.64,29.55,0,-999,0,0.00
2013-1-3,57.0,44.4,36.0,40.0,36.0,33.0,89,74,50,29.67,29.55,0,-999,0,0.00
2013-1-4,57.0,44.1,36.0,40.0,35.5,31.0,84,73,51,29.70,29.58,8,-508,0,0.00
2013-1-5,62.0,49.2,39.0,37.0,33.8,32.0,80,58,33,29.66,29.47,7,3,0,0.01
2013-1-6,51.0,46.4,42.0,43.0,40.0,35.0,90,79,65,29.55,29.45,9,4,0,0.24
2013-1-7,50.0,45.3,39.0,41.0,38.3,34.0,93,77,65,29.67,29.51,9,4,0,0.03
2013-1-8,59.0,46.8,38.0,43.0,39.0,35.0,89,75,52,29.64,29.55,8,4,0,0.00
2013-1-9,62.0,49.8,40.0,48.0,42.6,38.0,91,78,55,29.56,29.33,9,4,0,0.00
2013-1-10,50.0,43.1,39.0,44.0,35.4,31.0,89,75,52,29.53,29.39,10,5,0,0.11
2013-1-11,51.0,39.2,32.0,34.0,31.3,28.0,94,75,43,29.62,29.50,8,-40,0,0.01
2013-1-12,50.0,41.2,35.0,33.0,29.2,23.0,86,64,44,29.62,29.52,15,4,0,0.01
2013-1-13,50.0,39.9,33.0,32.0,29.9,26.0,84,69,46,29.63,29.52,6,3,0,0.01
2013-1-14,49.0,39.1,33.0,31.0,28.5,25.0,86,68,39,29.79,29.59,6,4,0,0.00
2013-1-15,59.0,41.8,32.0,33.0,29.9,28.0,83,65,33,29.87,29.77,7,4,0,0.00
2013-1-16,58.0,43.6,35.0,38.0,33.1,30.0,84,68,39,29.83,29.66,9,4,0,0.00
2013-1-17,63.0,47.0,37.0,41.0,36.2,33.0,86,69,38,29.67,29.55,10,5,0,0.00
2013-1-18,66.0,50.7,41.0,41.0,36.5,32.0,74,60,33,29.63,29.52,9,4,0,0.00
2013-1-19,64.0,50.0,41.0,40.0,35.6,31.0,72,59,34,29.65,29.55,9,5,0,0.00
2013-1-20,64.0,49.2,39.0,41.0,34.9,29.0,73,59,37,29.64,29.51,10,5,0,0.00
2013-1-21,68.0,50.5,38.0,40.0,34.6,30.0,77,57,34,29.59,29.50,12,5,0,0.00
2013-1-22,71.0,52.6,41.0,38.0,33.8,29.0,69,51,25,29.55,29.42,10,5,0,0.00
2013-1-23,65.0,57.8,50.0,43.0,34.2,28.0,53,41,30,29.48,29.39,8,4,0,0.00
2013-1-24,64.0,57.1,54.0,54.0,51.6,45.0,93,83,50,29.58,29.43,13,4,0,0.19
2013-1-25,59.0,54.8,52.0,55.0,52.7,51.0,96,92,83,29.58,29.42,6,2,0,0.01
2013-1-26,60.0,55.3,53.0,56.0,53.0,50.0,97,92,78,29.42,29.34,6,2,0,0.04
2013-1-27,54.0,47.4,42.0,50.0,40.2,37.0,91,77,54,29.51,29.37,6,4,0,0.10
2013-1-28,54.0,45.1,37.0,41.0,36.8,34.0,93,74,48,29.64,29.49,7,3,0,0.03
2013-1-29,56.0,47.1,39.0,41.0,37.1,33.0,84,70,46,29.69,29.63,5,3,0,0.00
2013-1-30,63.0,50.1,41.0,42.0,39.2,36.0,86,68,41,29.75,29.66,6,3,0,0.00
2013-1-31,66.0,54.4,43.0,46.0,42.7,39.0,84,66,44,29.67,29.55,8,4,0,0.01
2013-2-1,67.0,54.0,43.0,47.0,42.7,38.0,83,67,43,29.62,29.50,9,4,0,0.01
2013-2-2,62.0,54.6,49.0,49.0,45.4,41.0,87,72,49,29.65,29.57,9,3,0,0.00
2013-2-3,64.0,54.5,48.0,50.0,46.7,42.0,87,75,60,29.60,29.49,6,3,0,0.01
2013-2-4,65.0,54.1,45.0,50.0,46.0,41.0,87,76,56,29.57,29.43,10,4,0,0.01
2013-2-5,69.0,54.5,45.0,49.0,45.8,40.0,88,74,47,29.47,29.36,7,-38,0,0.01
2013-2-6,58.0,48.7,44.0,45.0,43.2,40.0,90,82,60,29.57,29.47,7,3,0,0.00
2013-2-7,55.0,47.1,40.0,43.0,39.5,35.0,88,75,59,29.55,29.36,7,4,0,0.00
2013-2-8,47.0,43.0,40.0,42.0,38.6,36.0,92,85,77,29.36,29.29,8,4,0,0.33
2013-2-9,54.0,45.6,40.0,39.0,36.7,32.0,90,73,46,29.49,29.35,6,4,0,0.06
2013-2-10,58.0,45.2,37.0,36.0,34.3,32.0,84,67,39,29.50,29.40,7,3,0,0.00
2013-2-11,61.0,47.7,37.0,38.0,32.3,28.0,80,59,29,29.64,29.47,8,4,0,0.00
2013-2-12,65.0,49.9,39.0,36.0,32.8,28.0,78,56,26,29.75,29.64,7,4,0,0.00
2013-2-13,66.0,50.5,41.0,41.0,35.9,33.0,77,60,33,29.72,29.58,9,4,0,0.00
2013-2-14,70.0,52.8,41.0,44.0,39.0,35.0,80,62,35,29.65,29.53,7,-42,0,0.00
2013-2-15,75.0,56.3,44.0,44.0,39.9,37.0,82,58,27,29.67,29.61,9,4,0,0.00
2013-2-16,73.0,57.2,47.0,42.0,35.8,29.0,66,47,21,29.64,29.43,8,5,0,0.00
2013-2-17,69.0,55.7,43.0,43.0,37.0,31.0,72,52,29,29.43,29.32,10,4,0,0.00
2013-2-18,69.0,55.2,45.0,43.0,40.4,37.0,79,61,34,29.41,29.26,7,4,0,0.00
2013-2-19,50.0,45.0,35.0,42.0,39.1,33.0,94,80,67,29.34,29.09,6,2,0,0.51
2013-2-20,47.0,40.2,35.0,37.0,35.3,34.0,95,84,62,29.45,29.18,7,2,0,0.56
2013-2-21,59.0,47.8,41.0,37.0,34.0,31.0,78,61,37,29.56,29.41,10,-41,0,0.01
2013-2-22,64.0,48.4,37.0,40.0,36.2,33.0,86,65,35,29.64,29.56,7,3,0,0.00
2013-2-23,61.0,49.3,42.0,40.0,38.3,33.0,83,67,46,29.62,29.45,8,4,0,0.00
2013-2-24,62.0,49.4,40.0,38.0,34.2,28.0,86,60,29,29.65,29.51,8,3,0,0.00
2013-2-25,67.0,51.2,39.0,37.0,33.8,29.0,79,55,24,29.67,29.51,7,4,0,0.00
2013-2-26,65.0,51.1,41.0,40.0,36.6,33.0,77,60,34,29.60,29.49,8,4,0,0.00
2013-2-27,71.0,53.7,43.0,40.0,36.2,28.0,79,56,20,29.74,29.60,9,4,0,0.00
2013-2-28,71.0,56.0,44.0,42.0,36.9,32.0,71,52,25,29.81,29.73,8,4,0,0.00
2013-3-1,78.0,60.2,47.0,44.0,40.8,38.0,74,52,25,29.81,29.61,8,4,0,0.00
2013-3-2,82.0,63.9,49.0,45.0,41.3,38.0,74,48,24,29.68,29.44,9,4,0,0.01
2013-3-3,71.0,62.2,55.0,46.0,42.7,38.0,69,50,33,29.50,29.36,10,4,0,0.00
2013-3-4,69.0,57.6,48.0,49.0,45.0,42.0,83,65,38,29.51,29.39,7,4,0,0.00
2013-3-5,77.0,60.3,47.0,45.0,42.0,35.0,79,54,31,29.45,29.28,9,4,0,0.01
2013-3-6,63.0,54.1,48.0,46.0,42.2,37.0,83,65,46,29.48,29.36,11,4,0,0.05
2013-3-7,62.0,52.4,47.0,46.0,43.2,40.0,90,72,44,29.37,29.21,13,3,0,0.03
2013-3-8,49.0,46.5,44.0,44.0,41.9,38.0,92,84,75,29.43,29.16,11,3,0,0.18
2013-3-9,56.0,49.2,46.0,44.0,43.2,41.0,94,80,61,29.71,29.43,8,3,0,0.01
2013-3-10,70.0,56.2,43.0,45.0,40.9,37.0,87,60,32,29.74,29.62,13,5,0,0.01
2013-3-11,74.0,57.0,45.0,48.0,44.1,40.0,82,64,35,29.66,29.48,8,4,0,0.01
2013-3-12,81.0,61.5,47.0,50.0,46.6,42.0,84,62,31,29.54,29.43,9,4,0,0.01
2013-3-13,86.0,64.5,50.0,52.0,47.3,41.0,79,58,29,29.57,29.43,8,4,0,0.01
2013-3-14,87.0,68.5,55.0,53.0,47.7,42.0,72,51,26,29.51,29.42,10,5,0,0.01
2013-3-15,79.0,67.3,56.0,56.0,52.9,47.0,76,61,44,29.47,29.37,7,4,0,0.01
2013-3-16,79.0,65.6,53.0,55.0,52.5,49.0,87,65,38,29.44,29.34,8,4,0,0.00
2013-3-17,75.0,62.0,49.0,53.0,47.7,45.0,91,63,35,29.48,29.37,11,4,0,0.00
2013-3-18,73.0,61.8,50.0,47.0,43.1,37.0,78,54,28,29.49,29.39,7,4,0,0.00
2013-3-19,79.0,63.5,52.0,46.0,43.4,38.0,75,51,24,29.52,29.42,7,3,0,0.00
2013-3-20,71.0,62.6,56.0,51.0,48.6,46.0,77,61,47,29.52,29.41,5,-46,0,0.00
2013-3-21,68.0,56.7,47.0,52.0,48.1,44.0,91,74,50,29.43,29.32,9,2,0,0.00
2013-3-22,68.0,56.4,45.0,46.0,41.2,36.0,86,60,33,29.44,29.34,8,3,0,0.00
2013-3-23,72.0,56.7,42.0,43.0,37.5,29.0,86,54,23,29.51,29.40,7,4,0,0.00
2013-3-24,75.0,60.2,47.0,44.0,38.8,35.0,74,49,24,29.48,29.33,10,4,0,0.00
2013-3-25,75.0,62.9,52.0,48.0,43.1,39.0,72,52,28,29.38,29.27,9,-40,0,0.00
2013-3-26,78.0,63.5,52.0,47.0,43.0,40.0,68,50,27,29.35,29.26,9,4,0,0.00
2013-3-27,77.0,63.8,53.0,46.0,44.5,40.0,72,52,28,29.38,29.29,9,4,0,0.01
2013-3-28,75.0,63.8,52.0,52.0,48.3,45.0,80,58,40,29.47,29.38,8,3,0,0.00
2013-3-29,85.0,65.7,52.0,49.0,44.0,39.0,71,49,23,29.49,29.37,9,4,0,0.01
2013-3-30,88.0,70.9,58.0,50.0,45.1,37.0,65,43,17,29.44,29.29,8,4,0,0.01
2013-3-31,76.0,64.7,57.0,55.0,48.4,36.0,89,59,24,29.49,29.37,9,4,0,0.23
2013-4-1,74.0,61.7,51.0,48.0,45.1,41.0,85,58,31,29.54,29.43,11,5,0,0.01
2013-4-2,74.0,61.5,49.0,52.0,46.9,43.0,83,61,34,29.54,29.43,9,3,0,0.01
2013-4-3,82.0,65.3,54.0,52.0,48.0,46.0,79,58,29,29.51,29.35,8,4,0,0.01
2013-4-4,75.0,65.7,59.0,53.0,49.6,43.0,71,57,38,29.52,29.38,7,3,0,0.00
2013-4-5,72.0,59.8,51.0,54.0,50.2,46.0,92,73,45,29.54,29.44,7,2,0,0.00
2013-4-6,77.0,60.8,49.0,51.0,46.9,41.0,92,64,31,29.56,29.42,7,3,0,0.00
2013-4-7,76.0,63.1,52.0,51.0,48.0,42.0,85,61,33,29.50,29.22,11,4,0,0.00
2013-4-8,62.0,54.6,49.0,50.0,43.9,39.0,80,68,49,29.26,29.13,11,5,0,0.01
2013-4-9,74.0,57.5,45.0,44.0,37.8,31.0,85,53,22,29.45,29.26,12,5,0,0.01
2013-4-10,80.0,65.5,52.0,43.0,38.3,32.0,67,41,20,29.54,29.41,7,4,0,0.01
2013-4-11,80.0,67.9,55.0,50.0,44.3,40.0,65,45,27,29.42,29.16,8,4,0,0.01
2013-4-12,83.0,68.6,55.0,52.0,48.0,45.0,76,51,26,29.28,29.16,8,5,0,0.01
2013-4-13,86.0,70.9,58.0,50.0,45.5,35.0,68,44,21,29.25,29.10,8,-43,0,0.01
2013-4-14,78.0,64.4,50.0,47.0,44.3,29.0,82,52,20,29.25,29.13,7,-41,0,0.01
2013-4-15,71.0,59.0,45.0,44.0,38.9,28.0,79,50,24,29.26,29.13,10,4,0,0.01
2013-4-16,65.0,53.8,44.0,37.0,32.9,28.0,68,46,29,29.40,29.25,13,5,0,0.01
2013-4-17,70.0,57.3,46.0,37.0,29.6,22.0,60,38,17,29.59,29.40,13,-40,0,0.01
2013-4-18,75.0,60.8,48.0,36.0,31.3,25.0,61,36,16,29.66,29.55,13,5,0,0.01
2013-4-19,83.0,66.5,53.0,39.0,34.5,27.0,58,35,14,29.63,29.41,7,4,0,0.01
2013-4-20,87.0,71.0,55.0,47.0,41.7,37.0,59,37,20,29.44,29.32,8,-39,0,0.01
2013-4-21,88.0,73.7,59.0,48.0,44.0,39.0,65,38,18,29.41,29.29,7,4,0,0.01
2013-4-22,90.0,74.3,61.0,48.0,44.5,37.0,60,38,17,29.36,29.18,8,4,0,0.01
2013-4-23,90.0,72.1,61.0,49.0,42.7,31.0,61,39,13,29.31,29.19,7,4,0,0.01
2013-4-24,90.0,73.5,60.0,44.0,39.9,32.0,53,33,13,29.24,29.10,8,4,0,0.01
2013-4-25,80.0,68.3,55.0,51.0,47.5,46.0,75,49,32,29.46,29.24,7,-42,0,0.00
2013-4-26,85.0,71.8,60.0,51.0,48.4,43.0,70,47,25,29.56,29.46,9,4,0,0.01
2013-4-27,90.0,74.8,62.0,51.0,47.0,42.0,61,40,21,29.57,29.39,7,4,0,0.01
2013-4-28,93.0,77.8,64.0,51.0,48.1,34.0,61,38,17,29.42,29.22,10,5,0,0.01
2013-4-29,94.0,78.2,65.0,50.0,47.9,46.0,58,37,20,29.26,29.10,6,4,0,0.01
2013-4-30,89.0,79.9,72.0,52.0,45.1,37.0,49,30,18,29.19,29.09,7,4,0,0.01
2013-5-1,88.0,72.6,58.0,46.0,39.5,30.0,62,34,13,29.46,29.19,8,4,0,0.01
2013-5-2,95.0,76.5,64.0,45.0,37.7,25.0,47,29,9,29.56,29.44,11,4,0,0.01
2013-5-3,94.0,76.7,64.0,44.0,39.2,31.0,43,29,14,29.45,29.17,9,-52,0,0.01
2013-5-4,95.0,78.5,67.0,46.0,38.8,26.0,44,27,10,29.17,28.92,9,4,0,0.00
2013-5-5,81.0,69.0,57.0,46.0,40.5,26.0,49,37,17,29.22,29.04,8,4,0,0.01
2013-5-6,76.0,65.5,57.0,52.0,46.1,40.0,84,51,30,29.35,29.22,8,3,0,0.29
2013-5-7,65.0,60.3,54.0,54.0,51.1,49.0,91,72,59,29.42,29.35,8,3,0,0.35
2013-5-8,77.0,64.6,56.0,58.0,52.2,49.0,84,66,38,29.48,29.39,9,4,0,0.01
2013-5-9,80.0,68.4,56.0,56.0,52.4,50.0,84,59,36,29.48,29.42,7,3,0,0.01
2013-5-10,89.0,75.4,63.0,56.0,51.4,-99.9,70,47,30,29.52,29.41,10,-42,0,0.01
2013-5-11,99.0,80.8,67.0,57.0,52.6,42.0,65,41,15,29.50,29.36,11,5,0,0.01
2013-5-12,100.0,84.1,70.0,56.0,51.4,45.0,57,34,19,29.49,29.31,8,4,0,0.01
2013-5-13,98.0,84.7,70.0,55.0,51.7,48.0,59,35,19,29.42,29.25,12,4,0,0.01
2013-5-14,92.0,80.2,65.0,54.0,47.4,36.0,67,35,14,29.33,29.23,12,4,0,0.02
2013-5-15,90.0,77.3,65.0,51.0,47.1,37.0,60,37,19,29.38,29.26,7,4,0,0.01
2013-5-16,76.0,64.5,57.0,49.0,30.1,-99.9,71,48,33,29.39,29.28,6,3,0,0.01
2013-5-17,80.0,68.4,55.0,50.0,39.2,-99.9,72,44,24,29.37,29.30,9,4,0,0.01
2013-5-18,83.0,68.5,52.0,43.0,38.3,30.0,68,36,17,29.48,29.38,8,4,0,0.01
2013-5-19,86.0,72.6,57.0,46.0,41.9,36.0,56,35,21,29.44,29.30,8,4,0,0.01
2013-5-20,92.0,76.1,64.0,47.0,43.8,36.0,55,35,15,29.39,29.27,9,4,0,0.01
2013-5-21,91.0,79.9,68.0,48.0,39.3,28.0,48,26,11,29.29,29.16,10,5,0,0.00
2013-5-22,75.0,64.2,54.0,42.0,36.2,22.0,64,38,18,29.33,29.20,8,-38,0,0.00
2013-5-23,77.0,63.3,47.0,35.0,30.7,27.0,58,32,18,29.34,29.26,9,5,0,0.00
2013-5-24,83.0,68.9,54.0,41.0,35.5,31.0,49,31,19,29.37,29.25,9,5,0,0.00
2013-5-25,83.0,69.9,55.0,43.0,37.3,31.0,59,33,17,29.36,29.29,8,4,0,0.00
2013-5-26,83.0,68.5,52.0,47.0,42.0,34.0,66,41,24,29.45,29.34,7,4,0,0.00
2013-5-27,80.0,67.7,54.0,49.0,46.6,41.0,80,49,28,29.45,29.33,11,4,0,0.00
2013-5-28,82.0,69.0,58.0,54.0,50.1,44.0,78,54,27,29.36,29.21,10,4,0,0.00
2013-5-29,86.0,73.7,58.0,51.0,48.1,37.0,69,43,25,29.30,29.16,11,5,0,0.01
2013-5-30,67.0,60.4,57.0,47.0,44.6,41.0,64,57,39,29.30,29.25,4,2,0,0.00
2013-5-31,91.0,84.9,76.0,48.0,44.1,41.0,36,25,18,29.36,29.25,6,-78,0,0.01
2013-6-1,98.0,83.1,69.0,51.0,47.1,42.0,50,31,15,29.30,29.12,9,4,0,0.01
2013-6-2,101.0,84.6,72.0,53.0,45.6,37.0,44,28,12,29.16,28.98,8,4,0,0.01
2013-6-3,95.0,83.3,68.0,52.0,48.3,46.0,48,31,20,29.15,29.05,9,4,0,0.01
2013-6-4,92.0,80.0,67.0,57.0,51.8,49.0,57,39,24,29.25,29.14,6,4,0,0.00
2013-6-5,96.0,81.2,67.0,57.0,54.8,53.0,70,43,25,29.33,29.20,11,4,0,0.01
2013-6-6,97.0,83.9,68.0,58.0,56.2,54.0,69,41,25,29.27,29.15,7,-42,0,0.01
2013-6-7,102.0,88.6,75.0,60.0,57.7,56.0,52,37,24,29.21,29.08,8,-40,0,0.01
2013-6-8,106.0,93.1,79.0,62.0,57.7,54.0,49,32,21,29.12,29.01,11,5,0,0.01
2013-6-9,100.0,88.2,75.0,63.0,54.7,45.0,58,34,20,29.16,29.06,7,3,0,0.02
2013-6-10,85.0,75.7,64.0,56.0,51.7,45.0,69,45,25,29.30,29.13,13,4,0,0.02
2013-6-11,95.0,80.5,64.0,54.0,51.5,48.0,68,39,22,29.34,29.20,6,4,0,0.01
2013-6-12,97.0,81.9,67.0,58.0,50.6,36.0,66,36,15,29.30,29.22,9,3,0,0.01
2013-6-13,89.0,75.3,62.0,46.0,38.7,32.0,51,29,14,29.43,29.28,8,4,0,0.00
2013-6-14,91.0,78.9,65.0,44.0,40.3,37.0,44,27,16,29.32,29.16,8,5,0,0.01
2013-6-15,96.0,82.2,69.0,46.0,39.2,32.0,44,24,11,29.28,29.19,9,5,0,0.01
2013-6-16,92.0,76.2,61.0,45.0,40.8,33.0,48,30,14,29.41,29.28,6,3,0,0.00
2013-6-17,93.0,77.9,61.0,47.0,42.6,34.0,49,30,15,29.42,29.28,8,4,0,0.01
2013-6-18,85.0,74.1,61.0,51.0,46.6,37.0,69,41,20,29.37,29.22,8,4,0,0.01
2013-6-19,84.0,69.7,56.0,47.0,43.1,34.0,70,42,21,29.39,29.28,9,5,0,0.01
2013-6-20,86.0,67.3,56.0,44.0,40.2,34.0,54,39,21,29.34,29.26,8,4,0,0.00
2013-6-22,95.0,86.8,79.0,46.0,42.6,38.0,30,22,15,29.29,29.16,7,4,0,0.01
2013-6-23,86.0,77.8,68.0,48.0,45.9,44.0,46,33,25,29.21,29.14,7,4,0,0.01
2013-6-24,84.0,74.7,61.0,58.0,54.1,47.0,61,50,36,29.27,29.18,7,3,0,0.00
2013-6-25,94.0,80.1,66.0,60.0,57.0,55.0,71,48,29,29.36,29.26,8,3,0,0.01
2013-6-26,97.0,83.1,69.0,64.0,59.9,56.0,81,49,29,29.40,29.29,6,3,0,0.00
2013-6-27,99.0,86.4,71.0,63.0,60.0,58.0,75,44,26,29.43,29.34,8,4,0,0.01
2013-6-28,103.0,90.4,79.0,63.0,60.1,55.0,55,38,21,29.38,29.24,6,4,0,0.01
2013-6-29,105.0,92.1,81.0,62.0,58.6,53.0,51,35,19,29.28,29.14,7,4,0,0.01
2013-6-30,107.0,93.6,82.0,62.0,58.6,56.0,47,32,21,29.20,29.09,8,-35,0,0.01
2013-7-1,102.0,93.2,84.0,62.0,58.3,54.0,41,32,22,29.21,29.12,11,4,0,0.01
2013-7-2,108.0,91.3,83.0,62.0,56.0,46.0,47,33,13,29.28,29.20,8,4,0,0.01
2013-7-3,103.0,92.5,79.0,62.0,55.7,51.0,42,30,21,29.26,29.10,6,4,0,0.01
2013-7-4,107.0,94.3,83.0,64.0,60.6,57.0,49,34,20,29.14,29.02,7,4,0,0.02
2013-7-5,105.0,93.9,80.0,65.0,58.9,47.0,53,33,19,29.11,29.01,8,4,0,0.02
2013-7-6,100.0,83.5,71.0,54.0,48.7,41.0,50,32,18,29.14,29.06,7,3,0,0.02
2013-7-7,105.0,87.3,74.0,52.0,45.0,37.0,42,25,10,29.19,29.10,10,4,0,0.01
2013-7-8,104.0,88.1,77.0,48.0,41.6,35.0,29,21,11,29.29,29.19,6,4,0,0.01
2013-7-9,106.0,90.5,76.0,50.0,43.3,36.0,29,20,13,29.39,29.25,9,5,0,0.02
2013-7-10,101.0,88.2,79.0,59.0,44.8,-99.9,42,23,16,29.32,29.20,7,4,0,0.01
2013-7-11,98.0,87.2,78.0,62.0,53.1,41.0,56,33,16,29.27,29.18,7,4,0,0.01
2013-7-12,99.0,84.1,67.0,57.0,48.0,41.0,71,32,14,29.29,29.18,6,4,0,0.01
2013-7-13,101.0,88.6,72.0,50.0,45.8,41.0,41,24,14,29.32,29.21,6,4,0,0.01
2013-7-14,101.0,88.6,70.0,50.0,43.7,35.0,50,24,10,29.34,29.20,7,4,0,0.01
2013-7-15,102.0,87.3,70.0,53.0,44.2,40.0,45,24,12,29.25,29.11,8,-51,0,0.01
2013-7-16,95.0,81.4,67.0,56.0,45.8,40.0,57,32,15,29.32,29.17,7,3,0,0.01
2013-7-17,95.0,79.5,63.0,57.0,52.7,45.0,79,44,20,29.43,29.32,6,4,0,0.01
2013-7-18,98.0,84.9,72.0,55.0,49.3,44.0,49,31,18,29.40,29.25,6,-53,0,0.01
2013-7-19,100.0,87.4,74.0,52.0,49.0,40.0,40,28,14,29.28,29.15,7,3,0,0.01
2013-7-20,102.0,88.4,78.0,53.0,48.4,-99.9,42,28,15,29.19,29.07,7,4,0,0.01
2013-7-21,103.0,90.0,78.0,58.0,53.2,50.0,42,30,18,29.20,29.10,7,3,0,0.01
2013-7-22,94.0,84.8,80.0,70.0,62.7,56.0,70,49,29,29.29,29.15,13,5,0,0.01
2013-7-23,99.0,86.2,73.0,71.0,60.8,51.0,90,47,22,29.35,29.25,7,4,0,0.06
2013-7-24,99.0,85.3,72.0,59.0,54.2,45.0,63,38,17,29.33,29.22,6,3,0,0.01
2013-7-25,102.0,90.8,79.0,58.0,55.3,53.0,47,31,21,29.32,29.25,7,4,0,0.01
2013-7-26,99.0,87.6,77.0,64.0,58.8,53.0,63,40,23,29.41,29.31,8,-34,0,0.01
2013-7-27,102.0,88.7,78.0,63.0,55.9,45.0,56,36,15,29.34,29.16,9,3,0,0.01
2013-7-28,101.0,87.3,74.0,56.0,50.0,43.0,43,29,15,29.21,29.10,8,3,0,0.01
2013-7-29,99.0,85.8,69.0,58.0,51.3,46.0,57,33,18,29.31,29.15,8,-31,0,0.01
2013-7-30,95.0,82.2,68.0,60.0,54.0,47.0,73,41,21,29.42,29.31,8,4,0,0.01
2013-7-31,97.0,83.6,70.0,57.0,51.0,45.0,62,36,17,29.42,29.27,6,3,0,0.01
2013-8-1,94.0,80.9,66.0,52.0,43.7,32.0,58,30,14,29.39,29.25,8,3,0,0.01
2013-8-2,93.0,79.4,61.0,46.0,40.5,33.0,52,27,14,29.33,29.23,9,4,0,0.01
2013-8-3,96.0,83.0,70.0,46.0,43.0,37.0,41,26,13,29.31,29.22,8,4,0,0.01
2013-8-4,97.0,84.3,72.0,49.0,44.0,40.0,40,26,15,29.33,29.23,7,5,0,0.01
2013-8-5,96.0,83.2,67.0,57.0,48.9,44.0,52,32,18,29.35,29.24,7,4,0,0.01
2013-8-6,94.0,82.4,67.0,56.0,50.2,45.0,59,35,19,29.35,29.26,6,4,0,0.01
2013-8-7,89.0,77.0,63.0,56.0,51.9,45.0,77,45,22,29.44,29.32,8,-20,0,0.01
2013-8-8,89.0,76.7,61.0,56.0,52.3,47.0,79,46,25,29.38,29.24,7,4,0,0.01
2013-8-9,91.0,79.0,62.0,55.0,50.5,45.0,79,40,22,29.31,29.23,9,4,0,0.01
2013-8-10,92.0,78.9,64.0,56.0,49.4,40.0,75,39,20,29.38,29.29,7,4,0,0.01
2013-8-11,95.0,79.9,68.0,55.0,48.3,43.0,47,34,21,29.37,29.24,6,4,0,0.01
2013-8-12,99.0,82.9,70.0,52.0,49.3,46.0,50,33,17,29.34,29.24,8,4,0,0.01
2013-8-13,98.0,84.3,71.0,53.0,47.4,-99.9,45,30,19,29.35,29.23,6,4,0,0.01
2013-8-14,99.0,83.8,72.0,51.0,47.0,41.0,43,29,15,29.32,29.20,8,5,0,0.01
2013-8-15,101.0,75.8,71.0,52.0,34.5,-99.9,41,28,14,29.32,29.22,6,4,0,0.01
2013-8-16,99.0,83.4,70.0,57.0,45.0,-99.9,49,29,18,29.34,29.24,8,4,0,0.01
2013-8-17,101.0,85.7,75.0,60.0,54.1,50.0,58,36,19,29.32,29.16,8,4,0,0.01
2013-8-18,97.0,83.9,70.0,58.0,53.4,46.0,58,36,24,29.26,29.13,7,3,0,0.01
2013-8-19,103.0,85.7,79.0,62.0,50.9,-99.9,55,37,21,29.25,29.15,35,7,0,0.01
2013-8-20,102.0,86.2,74.0,59.0,54.1,-99.9,57,37,21,29.23,29.13,10,5,0,0.01
2013-8-21,100.0,86.3,74.0,54.0,48.3,40.0,49,29,13,29.28,29.16,11,-52,0,0.02
2013-8-22,98.0,81.1,67.0,56.0,49.9,36.0,66,36,15,29.29,29.17,6,4,0,0.01
2013-8-23,93.0,80.7,65.0,55.0,50.0,40.0,71,37,19,29.26,29.12,8,4,0,0.02
2013-8-24,95.0,81.2,70.0,52.0,46.1,-99.9,47,32,17,29.24,29.13,8,4,0,0.01
2013-8-25,95.0,80.4,66.0,55.0,48.6,42.0,61,35,17,29.32,29.21,8,4,0,0.03
2013-8-26,94.0,81.1,66.0,57.0,51.1,43.0,71,37,21,29.36,29.20,7,4,0,0.02
2013-8-27,89.0,76.8,72.0,57.0,53.9,51.0,56,46,32,29.26,29.23,5,3,0,0.01
2013-8-28,98.0,89.8,83.0,56.0,53.8,52.0,40,30,22,29.27,29.19,8,4,0,0.01
2013-8-29,98.0,86.1,70.0,57.0,55.2,51.0,63,36,24,29.38,29.28,6,3,0,0.01
2013-8-30,97.0,84.1,69.0,58.0,54.9,50.0,67,39,21,29.40,29.26,6,3,0,0.02
2013-8-31,97.0,84.9,78.0,57.0,51.7,-99.9,48,34,18,29.33,29.22,8,4,0,0.01
2013-9-1,96.0,85.8,76.0,60.0,54.0,49.0,47,34,24,29.29,29.20,6,4,0,0.01
2013-9-2,96.0,84.4,71.0,63.0,60.4,56.0,74,46,29,29.31,29.18,7,3,0,0.01
2013-9-3,91.0,82.1,73.0,61.0,59.9,58.0,63,48,35,29.35,29.23,6,4,0,0.01
2013-9-4,94.0,81.9,69.0,63.0,58.7,56.0,71,48,30,29.37,29.24,8,3,0,0.02
2013-9-5,95.0,81.4,68.0,60.0,57.3,54.0,72,46,28,29.35,29.24,7,3,0,0.01
2013-9-6,95.0,80.7,67.0,61.0,55.3,52.0,68,44,27,29.34,29.19,7,3,0,0.02
2013-9-7,101.0,85.0,72.0,57.0,50.8,-99.9,52,34,17,29.27,29.16,8,4,0,0.01
2013-9-8,99.0,85.4,73.0,52.0,46.1,39.0,35,27,16,29.24,29.10,6,4,0,0.02
2013-9-9,98.0,85.7,76.0,52.0,48.7,46.0,40,29,18,29.17,29.06,9,5,0,0.01
2013-9-10,97.0,85.3,74.0,51.0,47.4,43.0,42,28,16,29.21,29.10,7,4,0,0.01
2013-9-11,89.0,78.5,65.0,55.0,50.4,47.0,59,39,23,29.35,29.21,6,3,0,0.00
2013-9-12,90.0,78.1,65.0,57.0,54.5,53.0,73,47,29,29.35,29.22,7,3,0,0.01
2013-9-13,93.0,82.7,71.0,56.0,53.8,51.0,58,39,26,29.25,29.09,6,4,0,0.01
2013-9-14,95.0,83.4,74.0,56.0,52.6,-99.9,52,37,25,29.15,29.04,7,4,0,0.01
2013-9-15,94.0,84.4,68.0,58.0,54.8,50.0,71,38,24,29.19,29.10,10,-41,0,0.01
2013-9-16,93.0,77.9,65.0,58.0,53.9,51.0,69,46,26,29.25,29.12,7,3,0,0.01
2013-9-17,88.0,76.9,68.0,57.0,51.6,41.0,66,43,25,29.22,29.13,8,4,0,0.02
2013-9-18,75.0,67.3,61.0,51.0,48.9,47.0,69,53,39,29.23,29.20,8,2,0,0.00
2013-9-19,91.0,77.0,64.0,52.0,48.3,46.0,59,39,22,29.26,29.11,7,5,0,0.01
2013-9-20,92.0,78.0,66.0,51.0,45.6,43.0,50,34,19,29.19,29.11,7,4,0,0.01
2013-9-21,82.0,70.5,60.0,55.0,51.4,45.0,76,53,32,29.26,29.13,11,4,0,0.01
2013-9-22,76.0,63.8,53.0,51.0,47.9,44.0,86,59,33,29.35,29.26,7,4,0,0.01
2013-9-23,85.0,71.1,59.0,51.0,47.2,45.0,66,45,27,29.41,29.29,8,4,0,0.01
2013-9-24,89.0,74.7,62.0,51.0,47.7,44.0,61,41,23,29.36,29.20,9,4,0,0.01
2013-9-25,77.0,66.0,58.0,51.0,44.8,35.0,71,49,27,29.29,29.13,9,4,0,0.00
2013-9-26,74.0,61.6,50.0,44.0,40.3,36.0,69,48,26,29.34,29.16,11,4,0,0.01
2013-9-27,80.0,66.3,54.0,40.0,36.7,33.0,54,36,19,29.46,29.34,11,5,0,0.01
2013-9-28,86.0,69.4,57.0,42.0,35.3,-99.9,51,32,16,29.48,29.37,9,5,0,0.01
2013-9-29,87.0,72.0,60.0,38.0,34.8,32.0,39,27,14,29.48,29.38,6,4,0,0.01
2013-9-30,84.0,71.1,56.0,51.0,41.5,35.0,51,35,25,29.46,29.30,8,4,0,0.01
2013-10-1,83.0,75.4,67.0,55.0,52.6,49.0,66,47,31,29.29,29.25,8,4,0,0.00
2013-10-2,82.0,69.5,57.0,54.0,48.0,41.0,78,50,26,29.36,29.25,6,3,0,0.00
2013-10-3,75.0,63.9,53.0,45.0,42.4,38.0,68,47,29,29.38,29.28,7,3,0,0.00
2013-10-4,81.0,67.4,56.0,42.0,38.9,34.0,61,38,20,29.50,29.34,8,4,0,0.00
2013-10-5,84.0,68.6,59.0,39.0,35.9,30.0,42,32,16,29.59,29.50,8,5,0,0.00
2013-10-6,87.0,72.8,59.0,37.0,32.6,26.0,40,26,12,29.54,29.38,8,-48,0,0.00
2013-10-7,86.0,70.9,63.0,35.0,30.2,27.0,30,23,13,29.38,29.24,8,5,0,0.00
2013-10-8,83.0,69.3,58.0,38.0,32.6,25.0,37,26,18,29.27,29.07,8,4,0,0.00
2013-10-9,64.0,57.6,52.0,50.0,43.3,34.0,77,60,32,29.18,29.03,12,4,0,0.00
2013-10-10,74.0,59.6,48.0,43.0,40.7,37.0,77,53,27,29.37,29.18,7,4,0,0.00
2013-10-11,79.0,65.2,53.0,45.0,41.3,39.0,63,44,26,29.45,29.32,9,4,0,0.00
2013-10-12,80.0,65.2,55.0,43.0,40.2,-99.9,61,43,26,29.38,29.25,8,4,0,0.00
2013-10-13,76.0,63.0,55.0,44.0,42.5,40.0,62,49,29,29.44,29.27,9,4,0,0.00
2013-10-14,78.0,64.2,53.0,43.0,41.8,40.0,67,46,26,29.50,29.37,6,4,0,0.00
2013-10-15,80.0,67.7,56.0,42.0,38.7,35.0,57,37,20,29.43,29.33,9,-34,0,0.00
2013-10-16,83.0,68.4,58.0,37.0,35.5,29.0,46,32,15,29.47,29.40,8,5,0,0.00
2013-10-17,83.0,67.8,56.0,37.0,35.0,31.0,45,31,16,29.47,29.33,7,4,0,0.00
2013-10-18,86.0,69.2,56.0,39.0,35.9,34.0,46,32,17,29.45,29.36,8,4,0,0.01
2013-10-19,85.0,69.8,58.0,38.0,34.6,30.0,40,29,16,29.47,29.36,9,-46,0,0.01
2013-10-20,84.0,69.1,57.0,38.0,34.4,28.0,42,29,18,29.41,29.28,9,5,0,0.00
2013-10-21,85.0,69.4,56.0,39.0,34.9,31.0,44,30,18,29.38,29.27,8,4,0,0.01
2013-10-22,85.0,70.0,57.0,39.0,34.1,25.0,39,27,17,29.40,29.27,10,5,0,0.00
2013-10-23,85.0,69.2,57.0,42.0,34.9,29.0,37,29,18,29.33,29.24,9,4,0,0.01
2013-10-24,83.0,68.0,56.0,43.0,38.6,32.0,50,35,22,29.44,29.31,11,5,0,0.00
2013-10-25,79.0,66.9,57.0,46.0,41.9,36.0,53,41,29,29.53,29.43,8,4,0,0.00
2013-10-26,81.0,65.7,54.0,45.0,40.4,-99.9,57,42,27,29.52,29.38,8,5,0,0.00
2013-10-27,83.0,65.7,54.0,45.0,41.6,36.0,63,43,25,29.41,29.06,8,5,0,0.00
2013-10-28,60.0,54.2,50.0,50.0,41.4,-99.9,83,66,43,29.27,29.11,12,5,0,0.06
2013-10-29,65.0,54.9,46.0,46.0,42.6,40.0,80,64,44,29.41,29.29,9,4,0,0.02
2013-10-30,68.0,57.7,49.0,46.0,41.7,38.0,80,58,34,29.51,29.41,7,4,0,0.01
2013-10-31,73.0,58.8,47.0,45.0,42.4,40.0,77,57,32,29.57,29.45,8,4,0,0.01
2013-11-1,77.0,60.2,48.0,44.0,40.7,35.0,73,52,25,29.56,29.40,10,5,0,0.01
2013-11-2,78.0,62.1,52.0,42.0,38.1,-99.9,62,44,25,29.44,29.26,7,4,0,0.00
2013-11-3,68.0,57.0,47.0,45.0,41.4,39.0,79,57,37,29.38,29.27,10,4,0,0.00
2013-11-4,66.0,54.6,48.0,43.0,35.6,31.0,71,51,28,29.44,29.26,7,4,0,0.00
2013-11-5,70.0,55.5,45.0,36.0,33.0,27.0,71,47,21,29.63,29.44,8,5,0,0.00
2013-11-6,75.0,58.7,47.0,34.0,31.4,27.0,54,38,19,29.67,29.56,9,4,0,0.00
2013-11-7,77.0,61.9,52.0,33.0,30.5,28.0,48,32,18,29.58,29.44,9,4,0,0.00
2013-11-8,75.0,60.2,50.0,36.0,31.7,28.0,46,35,18,29.47,29.34,9,5,0,0.00
2013-11-9,78.0,61.4,50.0,35.0,33.3,30.0,53,37,19,29.43,29.35,10,4,0,0.00
2013-11-10,81.0,62.7,51.0,31.0,27.0,22.0,40,27,14,29.49,29.40,7,4,0,0.01
2013-11-11,77.0,62.2,51.0,37.0,30.0,25.0,40,30,18,29.57,29.45,10,5,0,0.00
2013-11-12,69.0,60.7,56.0,47.0,39.0,29.0,61,46,30,29.66,29.53,9,4,0,0.00
2013-11-13,77.0,59.6,50.0,44.0,40.6,35.0,62,51,30,29.63,29.48,8,4,0,0.00
2013-11-14,75.0,61.6,51.0,42.0,40.5,38.0,68,48,27,29.51,29.25,8,4,0,0.01
2013-11-15,67.0,56.6,50.0,43.0,40.7,38.0,68,56,38,29.22,29.10,8,4,0,0.00
2013-11-16,69.0,56.4,47.0,41.0,40.7,40.0,76,57,36,29.29,29.16,8,4,0,0.01
2013-11-17,68.0,56.1,47.0,41.0,39.5,38.0,74,56,34,29.48,29.31,8,4,0,0.00
2013-11-18,68.0,56.7,47.0,43.0,39.5,38.0,79,54,35,29.53,29.41,9,4,0,0.00
2013-11-19,65.0,55.4,48.0,45.0,41.4,38.0,69,59,44,29.48,29.37,9,4,0,0.00
2013-11-20,71.0,58.9,52.0,53.0,47.7,42.0,96,68,42,29.38,29.22,12,-33,0,0.41
2013-11-21,58.0,54.4,52.0,54.0,51.3,49.0,94,89,81,29.34,29.24,7,3,0,0.54
2013-11-22,56.0,52.4,50.0,51.0,49.2,47.0,95,89,77,29.40,29.33,6,2,0,0.01
2013-11-23,65.0,53.9,47.0,47.0,43.4,40.0,87,70,40,29.50,29.38,9,4,0,0.01
2013-11-24,65.0,54.2,46.0,45.0,43.0,41.0,85,68,40,29.63,29.50,6,4,0,0.01
2013-11-25,65.0,53.1,46.0,44.0,42.5,40.0,81,68,45,29.72,29.63,7,4,0,0.00
2013-11-26,63.0,52.5,45.0,47.0,43.3,40.0,83,72,50,29.66,29.48,10,4,0,0.00
2013-11-27,73.0,58.4,50.0,43.0,40.3,37.0,72,53,30,29.47,29.22,8,4,0,0.00
2013-11-28,68.0,57.1,50.0,42.0,39.3,37.0,65,52,34,29.45,29.25,8,-39,0,0.00
2013-11-29,69.0,55.6,49.0,45.0,38.5,35.0,65,54,32,29.62,29.45,7,4,0,0.00
2013-11-30,68.0,55.5,46.0,43.0,37.0,-99.9,69,53,33,29.66,29.56,7,4,0,0.00
2013-12-1,68.0,54.6,45.0,44.0,40.0,36.0,72,59,38,29.73,29.61,7,4,0,0.00
2013-12-2,68.0,54.4,43.0,45.0,40.7,36.0,79,62,36,29.65,29.34,12,4,0,0.00
2013-12-3,54.0,48.7,42.0,49.0,42.4,36.0,94,79,65,29.34,29.16,7,3,0,0.03
2013-12-4,52.0,40.7,34.0,36.0,31.4,26.0,95,72,37,29.45,29.26,6,2,0,0.01
2013-12-5,49.0,38.5,32.0,29.0,26.9,24.0,81,65,39,29.57,29.44,8,4,0,0.00
2013-12-6,50.0,39.9,31.0,29.0,26.1,24.0,80,60,37,29.60,29.50,5,3,0,0.00
2013-12-7,49.0,41.3,36.0,37.0,29.9,-99.9,96,68,43,29.58,29.37,14,5,0,0.32
2013-12-8,48.0,37.7,32.0,29.0,26.3,24.0,78,64,40,29.69,29.58,9,4,0,0.01
2013-12-9,47.0,36.5,29.0,31.0,26.6,23.0,80,68,44,29.81,29.68,7,3,0,0.01
2013-12-10,52.0,39.3,31.0,30.0,27.3,25.0,79,64,41,29.81,29.60,8,5,0,0.00
2013-12-11,58.0,43.2,33.0,32.0,29.2,27.0,83,61,30,29.64,29.57,10,4,0,0.00
2013-12-12,59.0,46.2,36.0,36.0,29.1,26.0,71,53,31,29.64,29.55,10,6,0,0.01
2013-12-13,57.0,45.2,37.0,33.0,29.6,25.0,69,56,32,29.73,29.58,9,5,0,0.01
2013-12-14,60.0,45.5,36.0,36.0,30.2,-99.9,75,58,33,29.79,29.70,11,5,0,0.00
2013-12-15,59.0,47.3,38.0,37.0,32.5,28.0,70,57,38,29.77,29.63,8,-39,0,0.00
2013-12-16,62.0,49.3,40.0,38.0,34.9,31.0,75,59,38,29.66,29.53,11,6,0,0.00
2013-12-17,66.0,54.2,43.0,41.0,37.1,32.0,70,54,33,29.60,29.44,12,4,0,0.00
2013-12-18,64.0,56.3,51.0,43.0,39.6,30.0,67,54,28,29.44,29.13,10,4,0,0.00
2013-12-19,53.0,50.7,48.0,43.0,41.4,39.0,78,71,59,29.28,29.08,8,3,0,0.00
2013-12-20,56.0,47.8,43.0,42.0,39.0,34.0,91,74,48,29.41,29.28,8,3,0,0.00
2013-12-21,59.0,46.7,38.0,36.0,34.5,32.0,82,64,39,29.50,29.37,7,4,0,0.01
2013-12-22,63.0,49.1,40.0,36.0,34.1,32.0,77,59,32,29.70,29.50,10,5,0,0.01
2013-12-23,65.0,50.6,41.0,37.0,34.2,32.0,73,56,32,29.78,29.69,10,5,0,0.01
2013-12-24,63.0,49.9,41.0,39.0,35.4,33.0,74,59,37,29.73,29.61,10,6,0,0.01
2013-12-25,68.0,51.5,42.0,38.0,34.7,32.0,72,54,32,29.68,29.60,10,5,0,0.01
2013-12-26,67.0,51.8,43.0,35.0,30.6,25.0,61,45,30,29.68,29.57,11,6,0,0.02
2013-12-27,68.0,51.4,39.0,34.0,28.5,22.0,63,43,23,29.65,29.51,13,6,0,0.00
2013-12-28,62.0,50.5,41.0,39.0,33.1,25.0,72,52,36,29.53,29.41,9,6,0,0.00
2013-12-29,65.0,49.7,38.0,34.0,31.4,27.0,72,52,29,29.59,29.50,8,4,0,0.00
2013-12-30,72.0,53.8,44.0,27.0,22.8,16.0,46,32,15,29.64,29.56,10,5,0,0.00
2013-12-31,64.0,51.8,44.0,30.0,24.3,19.0,49,35,24,29.64,29.53,11,5,0,0.00
2014-1-1,65.0,50.6,42.0,35.0,28.9,25.0,54,44,29,29.61,29.51,10,5,0,0.00
2014-1-2,67.0,51.1,41.0,34.0,29.9,26.0,58,45,28,29.57,29.45,12,6,0,0.00